www.pogodaiklimat.ru

Погода и климат >> Архив погоды >> Мексика >> Orizaba


ПОГОДА в Orizaba

  • Прогноз погоды в Orizaba
  • Монитор погоды в Orizaba
  • Климат города

АРХИВ ПОГОДЫ в Orizaba

Время (UTC), дата Ветер
(напр.,м/с)
 
Видим.   Явления Облачность Т
(С)
Тd
(С)
f
(%)
Тe
(С)
Тes
(С)
Комфортность P
(гПа)
Po
(гПа)
Тmin
(С)
Tmax
(С)
R
(мм)
R24
(мм)
S
(см)
03 13.11 СВ 1
{5}
6000 м слабая морось 10/10 120 м
[Frnb]
+17.2 +17.2 100 +18 +18 1018.6 882.0 2
06 13.11 СВ 2 20 км {морось} 8/8 300 м
[St]
+16.4 +15.8 96 +16 +16 1019.4 882.1 2
09 13.11 СВ 1
{5}
20 км 9/9 420 м
[St]
+16.5 +16.0 97 +17 +17 1019.0 881.1
12 13.11 С 1
{5}
30 км ясно +13.7 +13.4 98 +14 +14 1019.8 881.2 +13.7 +23.7
15 13.11 С 3
{5}
30 км ясно +18.6 +14.3 76 +20 +23 1021.9 882.8
18 13.11 СВ 5 30 км 8/1 700 м
[Cu hum Ac und]
+22.6 +12.1 51 +25 +28 комфорт 1020.4 881.9 +12.9 +22.6
21 13.11 В 2
{10}
30 км 6/6 700 м
[Cu med, cong]
+22.4 +15.4 65 +26 +29 жарко 1017.9 880.4
00 14.11 В 1 25 км слабая морось 10/10 300 м
[Frnb]
+18.9 +15.8 82 +21 +21 комфорт 1017.5 880.7 0.6
03 14.11 С 1 30 км {морось} 5/1 400 м
[St Ac und]
+17.2 +15.5 90 +18 +18 1019.0 882.2 0.1
06 14.11 СВ 1 30 км {морось} 1/1 300 м
[St]
+14.9 +14.6 98 +15 +15 1019.8 882.3 0.1
09 14.11 СЗ 1 30 км 6/1 400 м
[St Ac und]
+14.1 +13.3 95 +14 +14 1019.1 880.8
12 14.11 СВ 1 30 км 1/0 2000 м
[Ac lent]
+13.1 +12.6 97 +13 +13 1019.8 880.6 +13.1 +23.3
15 14.11 СВ 2
{4}
30 км 1/0 2000 м
[Ac trans]
+18.6 +14.6 78 +20 +24 1021.2 881.6
18 14.11 В 3 30 км 8/8 700 м
[Cu med, cong]
+21.6 +15.2 67 +25 +27 комфорт 1019.0 880.4 +12.8 +23.0
21 14.11 В 2
{5}
29 км 8/8 600 м
[Sc diur, vesp]
+21.6 +15.4 68 +25 +27 комфорт 1015.8 878.5
00 15.11 В 1 25 км 8/8 300 м
[St]
+19.4 +15.8 80 +22 +22 комфорт 1014.9 878.5 +12.8 +23.0
03 15.11 СВ 1 25 км 9/6 400 м
[St Ac und]
+16.5 +15.4 93 +17 +17 1016.2 879.7
06 15.11 С 1 25 км 4/3 400 м
[St Ac lent]
+16.1 +15.2 94 +17 +17 1016.2 879.2 +12.8 +23.0
09 15.11 С 1 25 км 8/1 400 м
[St Ac und]
+14.3 +13.0 92 +15 +15 1015.8 878.1
12 15.11 С 1 25 км 1/0 2000 м
[Ac lent]
+13.0 +11.5 91 +13 +13 1016.3 877.8 +13.0 +23.0
15 15.11 В 1
{2}
30 км ясно +19.2 +13.6 70 +22 +27 комфорт 1017.6 878.7
18 15.11 В 2 30 км 1/1 700 м
[Cu hum]
+23.6 +16.4 64 +27 +39 жарко 1016.0 878.1 +12.8 +24.0
21 15.11 В 1
{6}
30 км 8/8 500 м
[St]
+22.6 +16.9 70 +27 +29 душно 1012.9 876.4
00 16.11 В 1 28 км в посл. час морось 10/10 300 м
[St]
+19.4 +16.9 85 +22 +22 комфорт 1013.0 877.1 0.0
03 16.11 Ю 1 25 км {морось} 8/5 400 м
[St Ac und]
+17.7 +16.7 94 +19 +19 1015.1 879.1 0.3
06 16.11 С 1 25 км {морось} 9/6 300 м
[St Ac und]
+16.8 +16.4 97 +18 +18 1016.3 879.6 0.3
09 16.11 С 1 30 км ясно +13.9 +12.0 88 +14 +14 1016.6 878.9
12 16.11 штиль 0 30 км ясно +12.1 +10.8 92 +11 +11 1018.2 879.4 +12.1
15 16.11 СВ 2
{3}
30 км ясно +18.6 +13.0 70 +20 +24 1020.2 880.8
18 16.11 В 3 30 км 3/3 700 м
[Cu hum]
+23.6 +16.8 66 +27 +35 жарко 1018.5 880.0 +12.0 +23.6
21 16.11 В 2
{6}
30 км 8/6 400 м
[Cu med, cong As trans]
+22.4 +16.4 69 +27 +29 душно 1015.1 878.1
00 17.11 В 1 30 км 8/8 300 м
[St]
+19.7 +15.8 78 +23 +23 комфорт 1014.7 878.5 +12.0 +24.0
03 17.11 СВ 1
{4}
8000 м {морось} 9/9 210 м
[St]
+17.0 +16.6 97 +18 +18 1017.0 880.7 0.0
06 17.11 С 1 8000 м слабая морось 10/10 200 м
[Frnb]
+16.8 +16.1 96 +18 +18 1017.9 880.9 0.0
09 17.11 С 1
{2}
25 км 1/1 500 м
[St]
+15.3 +14.7 96 +16 +16 1017.3 879.6
12 17.11 С 1
{2}
30 км ясно +13.0 +11.2 89 +13 +13 1018.1 879.6 +13.0 +24.0
15 17.11 СВ 2
{3}
30 км ясно +18.2 +13.2 73 +19 +23 1020.3 881.2
18 17.11 В 3 30 км 3/3 700 м
[Cu hum]
+23.8 +15.3 59 +27 +34 жарко 1018.1 880.0 +12.6 +23.8
21 17.11 В 1
{5}
30 км 8/8 600 м
[Sc diur, vesp]
+23.0 +16.3 66 +28 +29 душно 1014.9 878.0
00 18.11 В 1 25 км 6/6 600 м
[Sc diur, vesp]
+20.4 +16.2 77 +24 +24 комфорт 1014.0 878.0 +12.6 +24.7
03 18.11 ЮВ 1
{4}
25 км 3/3 400 м
[St]
+17.5 +16.2 92 +19 +19 1014.9 879.0
06 18.11 Ю 1 30 км 6/0 2000 м
[Ac und]
+15.2 +12.8 86 +16 +16 1015.4 878.8 +12.6 +24.7
09 18.11 З 1
{2}
30 км 1/0 2000 м
[Ac trans]
+13.4 +12.4 94 +13 +13 1014.6 877.1
12 18.11 З 1
{2}
30 км ясно +12.3 +11.8 97 +12 +12 1015.0 876.5 +12.3 +24.7
15 18.11 штиль 0 30 км ясно +17.4 +12.9 75 +17 +23 1016.2 877.1
18 18.11 В 1
{3}
30 км ясно +23.8 +17.4 67 +28 +43 душно 1014.9 876.5 +12.2 +24.0
21 18.11 В 1
{4}
30 км ясно +25.2 +18.3 66 +30 +39 душно 1010.6 874.2
00 19.11 В 1 30 км 8/4 300 м
[St As op]
+21.0 +18.3 85 +26 +26 душно 1010.3 874.9 +12.2 +25.7
03 19.11 В 1 20 км 9/5 300 м
[St Ac trans]
+19.3 +17.7 90 +22 +22 комфорт 1011.8 876.8
06 19.11 СВ 1
{3}
30 км ясно +15.5 +13.6 88 +16 +16 1013.5 877.7 +12.2 +25.7
09 19.11 СВ 1
{4}
30 км 1/0 2000 м
[Ac trans]
+13.6 +11.6 88 +14 +14 1014.4 877.8
12 19.11 СВ 1 30 км 5/0 2000 м
[Ac und]
+13.5 +11.5 88 +14 +14 1015.9 878.9 +13.2 +25.7
15 19.11 штиль 0 30 км 8/8 600 м
[Sc diur, vesp]
+17.4 +13.4 77 +17 +18 1020.1 880.8
18 19.11 В 2
{5}
15 км 10/10 500 м
[St]
+18.4 +15.2 82 +19 +19 1020.1 881.0 +13.2 +19.5
21 19.11 В 2
{7}
10 км морось 10/10 210 м
[Frnb]
+16.8 +16.5 98 +17 +17 1017.0 878.7 2
00 20.11 ЮВ 1 10 км слабая морось {дождь} 10/10 200 м
[Frnb]
+15.6 +15.4 99 +16 +16 1016.9 879.0 9

 

Местоположение метеостанции Orizaba (Мексика): широта 18.85 долгота -97.10 высота над уровнем моря 1259 м.

В архиве по умолчанию представлена погода в Orizaba за последнюю неделю. Архивные данные за месяц целиком и за предыдущие месяцы, начиная с января 2011 года, Вы можете получить, выбрав интересующий диапазон дат из раскрывающегося списка и нажав кнопку "Ввод!".

Внимание! Время в таблицах - всемирное. Для получения местного времени необходимо прибавить поправку, которая в Orizaba равна -6 ч.

Смотрите также архив погоды в соседних городах и на ближайших метеорологических станциях:

Погода в Cordoba-In-Veracruz (Мексика) (19 км)
Погода в Jalapa (Мексика) (80 км)
Погода в Verakruz (Мексика) (109 км)
Погода в Puebla (Мексика) (114 км)
Погода в Tlaxcala Airport (Мексика) (130 км)
Погода в Tlaxcala (Мексика) (132 км)
Погода в Huajuapan De Leon (Мексика) (137 км)
Погода в Tulancingo (Мексика) (191 км)
Погода в Oaxaca (Мексика) (204 км)
Погода в Zacatepec (Мексика) (219 км)

Пояснения к столбцам:

Ветер - указаны скорость ветра в м/с - средняя за 10 мин, порывы в срок и между сроками (в фигурных скобках) и направление, откуда дует ветер: С - северный, СВ - северо-восточный, В - восточный, ЮВ - юго-восточный, Ю - южный, ЮЗ - юго-западный, З - западный, СЗ - северо-западный.
Видимость - горизонтальная дальность видимости в метрах или километрах. При видимости от 1 до 10 км при отсутствии осадков обычно наблюдается дымка, при ухудшении видимости до 1 км и менее - туман. В сухую погоду видимость может ухудшаться дымом, пылью или мглою.
Явления - указаны атмосферные явления, наблюдавшиеся в срок или в последний час перед сроком; фигурными скобками обозначены явления, наблюдавшиеся между сроками (за 1-3 часа до срока); квадратными скобками обозначены град или гололедные отложения с указанием их диаметра в мм.
Облачность - указаны через наклонную черту общая и нижняя облачность в баллах и высота нижней границы облаков в метрах; квадратными скобками обозначены формы облаков: Ci - перистые, Cs - перисто-слоистые, Cc - перисто-кучевые, Ac - высококучевые, As - высокослоистые, Sc - слоисто-кучевые, Ns - слоисто-дождевые, Cu - кучевые, Cb - кучево-дождевые. Подробнее классификацию облаков см. в Атласе облаков (PDF).
T - Температура воздуха - температура, измеренная на высоте 2 м над землей.
Td - Температура точки росы - температура, при понижении до которой содержащийся в воздухе водяной пар достигнет насыщения.
f - Относительная влажность воздуха - влажноcть воздуха, измеренная на высоте 2 м над землей.
Te - Эффективная температура - температура, которую ощущает одетый по сезону человек в тени. Характеристика душности погоды. При расчете учитывается влияние влажности воздуха и скорости ветра на теплоощущения человека.
Tes - Эффективная температура на солнце - температура, которую ощущает человек, с поправкой на солнечный нагрев. Характеристика знойности погоды. Зависит от высоты солнца над горизонтом, облачности и скорости ветра. Ночью, в пасмурную погоду, а также при ветре 12 м/с и более поправка равна нулю.
P - Атмосферное давление - приведенное к уровню моря атмосферное давление.
Po - Атмосферное давление - измеренное на уровне метеостанции атмосферное давление.
Tmin - Минимальная температура - минимум температуры воздуха на высоте 2 м над землей.
Tmax - Максимальная температура - максимум температуры воздуха на высоте 2 м над землей.
R - Количество осадков - Количество выпавших осадков за период времени, мм. При наведении курсора мыши на число - период времени, за который выпало указанное количество осадков.
R24 - Количество осадков - Количество выпавших осадков за 24 часа, мм.
S - Снежный покров - Высота снежного покрова, см. При наведении курсора мыши на число - состояние снежного покрова и степень покрытия местности в баллах.